Flag for Italy Weather past 2 weeks in Trieste, Italy

Now
81 °F

Partly sunny.


Feels Like: 84 °F
Forecast: 69 / 79 °F
Wind: 3 mph from West

Location: Trieste

Current Time: Jul 28, 2014 at 6:57:39 PM

Latest Report: Jul 28, 2014 at 6:00 PM


Visibility: 13 mi

Pressure: 29.80 "Hg

Humidity: 65%

Dew point: 68 °F

Location of TriesteLocation

Historic Weather in Trieste — Graph

°F

Trieste temperature yesterday

Maximum temperature yesterday: 78 °F (at 5:00 PM)
Minimum temperature yesterday: 66 °F (at 1:00 AM)
Average temperature yesterday: 72 °F

Past Weeks' High & Low Weather Summary

 TemperatureHumidityPressure
High88 °F (Jul 17, 12:00 PM)96% (Jul 21, 4:00 PM)30.06 "Hg (Jul 21, 4:00 PM)
Low63 °F (Jul 22, 6:00 AM)38% (Jul 15, 3:00 PM)29.75 "Hg (Jul 22, 5:00 AM)
Average75 °F69%29.91 "Hg
* Reported Jul 13 5:00 PM — Jul 28 5:00 PM, Trieste, Weather by CustomWeather, © 2014

Note: Actual official high and low records may vary slightly from our data, if they occured in-between our weather recording intervals... More about our weather records

Advertising

Trieste weather history for previous 24 hours

 ConditionsComfort  
Time TempWeatherWind HumidityBarometerVisibility
5:00 PM
Jul 28
81 °FOvercast.2 mph63%29.82 "Hg12 mi
4:00 PM82 °FPartly sunny.8 mph64%29.82 "Hg12 mi
3:00 PM81 °FPartly sunny.5 mph65%29.83 "Hg12 mi
2:00 PM77 °FOvercast.5 mph72%29.84 "Hg12 mi
1:00 PM77 °FOvercast.2 mph69%29.85 "Hg12 mi
12:00 PM77 °FOvercast.3 mph69%29.85 "Hg12 mi
11:00 AM76 °FOvercast.2 mph74%29.85 "Hg12 mi
10:00 AM73 °FOvercast.2 mph75%29.85 "Hg12 mi
9:00 AM72 °FOvercast.1 mph85%29.86 "Hg12 mi
8:00 AM71 °FOvercast.2 mph82%29.86 "Hg12 mi
7:00 AM68 °FOvercast.5 mph75%29.86 "Hg12 mi
6:00 AM68 °FPartly sunny.5 mph74%29.85 "Hg12 mi
5:00 AM68 °FOvercast.1 mph80%29.85 "Hg12 mi
4:00 AM68 °FPassing clouds.2 mph80%29.85 "Hg12 mi
3:00 AM68 °FPassing clouds.3 mph74%29.85 "Hg12 mi
2:00 AM70 °FPassing clouds.2 mph79%29.87 "Hg12 mi
1:00 AM70 °FPassing clouds.6 mph83%29.87 "Hg12 mi
12:00 AM71 °FPassing clouds.6 mph91%29.88 "Hg12 mi
11:00 PM
Jul 27
72 °FPassing clouds.7 mph89%29.87 "Hg12 mi
10:00 PM72 °FPassing clouds.7 mph90%29.87 "Hg12 mi
9:00 PM74 °FPassing clouds.2 mph85%29.85 "Hg12 mi
8:00 PM77 °FPassing clouds.2 mph78%29.84 "Hg12 mi
7:00 PM77 °FScattered clouds.5 mph76%29.83 "Hg12 mi
6:00 PM77 °FScattered clouds.2 mph75%29.84 "Hg12 mi
Weather by CustomWeather, © 2014

See weather overviewHow to use our weather pages